Regional Weather Roundup
Issued by NWS

Home | Current Version | Previous Version | Text Only | Print | Product List | Glossary On
Versions: 1 2 3 4 5 6 7 8 9 10 11 12 13 14 15 16 17 18 19 20 21 22 23 24 25 26 27 28 29 30 31 32 33 34 35 36 37 38 39 40 41 42 43 44 45 46 47 48 49 50
000
ASCA44 KEWX 281320
RWRMX

LATIN AMERICA AND CARIBBEAN REGIONAL WEATHER ROUNDUP
NATIONAL WEATHER SERVICE AUSTIN/SAN ANTONIO TX
800 AM CDT THU AUG 28 2014

NOTE: "FAIR" INDICATED FEW OR NO CLOUDS BELOW 12,000 FEET WITH NO
SIGNIFICANT WEATHER AND/OR OBSTRUCTIONS TO VISIBILITY.

BAJA CALIFORNIA

CITY           SKY/WX    TMP DP  RH WIND       PRES   REMARKS
LORETO         PTCLDY    88  66  48 CALM      29.79  HX  90
MEXICALI       CLEAR     84  48  28 W6        29.88
TIJUANA        CLEAR     68  50  52 CALM      30.01S

NORTHWESTERN MEXICO

CITY           SKY/WX    TMP DP  RH WIND       PRES   REMARKS
DURANGO        CLEAR     54  46  76 W5        30.25S
HERMOSILLO     CLEAR     86  64  48 CALM      29.86R
CD. JUAREZ     PTCLDY    72  61  68 CALM      30.08

NORTHEASTERN MEXICO

CITY           SKY/WX    TMP DP  RH WIND       PRES   REMARKS
CHIHUAHUA      PTCLDY    63  57  82 S6        30.17
MATAMOROS      PTSUNNY   81  77  89 W7        29.85
MONCLOVA       CLEAR     77  66  69 CALM      29.94
MONTERREY      CLEAR     75  66  73 N3        29.92S
NUEVO LAREDO   CLEAR     79  72  78 CALM      29.90
PIEDRAS NEGRAS CLEAR     77  70  78 CALM      29.95
REYNOSA        MOCLDY    79  72  78 N6        29.87
SALTILLO       CLEAR     66  57  72 CALM      30.17R
TORREON        PTCLDY    73  57  56 CALM      30.08R
CD. VICTORIA   CLEAR     75  68  78 CALM      29.89

WESTERN MEXICO

CITY           SKY/WX    TMP DP  RH WIND       PRES   REMARKS
AGUASCALIENTES CLEAR     55  50  82 N9        30.28
COLIMA         MOCLDY    75  63  64 CALM      30.00S
DEL BAJIO      CLEAR     57  50  77 CALM      30.29R
GUADALAJARA    PTCLDY    61  57  88 SE5       30.18  HAZE
MANZANILLO     MOCLDY    81  75  83 CALM      29.80
MAZATLAN       MOCLDY    81  77  89 NE8       29.82R
P. VALLARTA    MOCLDY    82  79  89 CALM      29.85S HX  93
URUAPAN        MOCLDY    61  59  94 CALM      30.18R
ZACATECAS      CLEAR     52  41  66 CALM      30.30S

CENTRAL MEXICO

CITY           SKY/WX    TMP DP  RH WIND       PRES   REMARKS
CUERNAVACA     PTCLDY    66  59  77 CALM      30.12R
MEXICO CITY    CLEAR     59  48  67 E3        30.33R
MORELIA        PTCLDY    50  50 100 CALM      30.24  FOG
POZA RICA      MOSUNNY   75  75 100 CALM      29.98R FOG
PUEBLA         CLEAR     48  43  81 N10       30.33S WCI  44
QUERETARO      CLEAR     52  48  87 CALM      30.31R
S. LUIS POTOSI PTCLDY    57  52  82 CALM      30.24S
TAMPICO        CLEAR     79  75  89 CALM      29.86F
TOLUCA         MOCLDY    45  39  81 NW3       30.38R

SOUTHERN MEXICO

CITY           SKY/WX    TMP DP  RH WIND       PRES   REMARKS
ACAPULCO       MOCLDY    79  73  83 CALM      29.85R
B. DE HUATULCO MOSUNNY   75  70  83 CALM      29.91
OAXACA         PTSUNNY   57  54  88 CALM      30.21
P. ESCONDIDO   MOCLDY    77  70  78 E12       29.99R
VERACRUZ       MOSUNNY   75  72  88 W2        29.87R
ZIHUATANEJO    MOCLDY    81  73  78 SW12      29.89R

YUCATAN PENINSULA

CITY           SKY/WX    TMP DP  RH WIND       PRES   REMARKS
CAMPECHE       MOSUNNY   77  77 100 CALM      29.83R
CANCUN         MOSUNNY   84  77  79 S3        29.89R HX  94
CHETUMAL       SUNNY     77  72  83 CALM      29.86R
CD. DEL CARMEN MOSUNNY   82  79  89 W7        29.85  HX  93
COZUMEL        SUNNY     77  75  94 CALM      29.89R
MERIDA         PTSUNNY   79  73  83 CALM      29.87R
MINATITLAN     MOSUNNY   77  66  69 CALM      29.86
TAPACHULA      MOSUNNY   75  73  94 CALM      29.89R
TUX. GUTIERREZ PTSUNNY   73  68  83 SW5       29.94R
VILLAHERMOSA   CLOUDY    75  73  94 CALM      29.89R

CENTRAL AMERICA

CITY           SKY/WX    TMP DP  RH WIND       PRES   REMARKS
BELIZE CITY    MOSUNNY   79  75  89 W3        29.88R
MANAGUA        MOSUNNY   77  75  94 CALM      29.86R

CARIBBEAN

CITY           SKY/WX    TMP DP  RH WIND       PRES   REMARKS
ARUBA          MOSUNNY   84  75  74 E10       29.89R HX  92
KINGSTON       MOSUNNY   84  73  70 N7        29.94R HX  91
NASSAU         LGT RAIN  84  77  79 S7        30.03R HX  94
SAN JUAN       MOSUNNY   84  79  84 E13       30.00R HX  96
SANTO DOMINGO  PTSUNNY   81  75  83 N6        29.94S
ST. CROIX      MOSUNNY   84  75  74 E16G22    30.00R HX  92
ST. KITTS      PTSUNNY   82  77  83 E12       30.00S HX  91
ST. MAARTEN    MOSUNNY   84  73  70 E12G24    30.00S HX  91
ST. THOMAS     MOSUNNY   84  73  70 SE20G26   29.99  HX  91

$$



USA.gov is the U.S. government's official web portal to all federal, state and local government web resources and services.